Karlovy, Czech Republic

2:25 PM CET on February 21, 2017 (GMT +0100)
Karlovy Vary

Weather History for LKKV - April, 2013

Change the Weather History Date:

Tuesday, April 16, 2013

  Actual Average (EDQM) Record (EDQM)
Temperature  
Mean Temperature 54 °F -  
Max Temperature 66 °F 48 °F 69 °F (2007)
Min Temperature 41 °F 35 °F 28 °F (1997)
Degree Days  
Heating Degree Days 12    
Growing Degree Days 4 (Base 50)    
Moisture  
Dew Point 42 °F    
Average Humidity 62    
Maximum Humidity 100    
Minimum Humidity 42    
Precipitation  
Precipitation 0.00 in - - ()
Sea Level Pressure  
Sea Level Pressure 30.13 in    
Wind  
Wind Speed 4 mph ()    
Max Wind Speed 12 mph    
Max Gust Speed -    
Visibility 6.2 miles    
Events Rain    
Averages and records for this station are not official NWS values.
T = Trace of Precipitation, MM = Missing Value Source: Averaged Metar Reports

Daily Weather History Graph

Daily Weather History Graph

Search for Another Location

Airport or City:

Trip Planner

Search our weather history database for the weather conditions in past years. The results will help you decide how hot, cold, wet, or windy it might be!

Date:

Astronomy

Apr. 16, 2013 Rise Set
Actual Time 6:12 AM CEST 8:04 PM CEST
Civil Twilight 5:38 AM CEST 8:38 PM CEST
Nautical Twilight 4:56 AM CEST 9:21 PM CEST
Astronomical Twilight 4:08 AM CEST 10:09 PM CEST
Moon 9:59 AM CEST (4/16) 1:05 AM CEST (4/16)
Length of Visible Light 15h 00m
Length of Day
13h 51m
Waxing Crescent, 31% of the Moon is Illuminated
Apr 16
Waxing Crescent
Apr 18
First Quarter
Apr 25
Full
May 2
Last Quarter
May 10
New

Hourly Weather History & Observations

Time (CEST) Temp. Windchill Dew Point Humidity Pressure Visibility Wind Dir Wind Speed Gust Speed Precip Events Conditions
12:00 AM 50.0 °F - 35.6 °F 58% 30.15 in - SE 5.8 mph - N/A   Clear
1:00 AM 50.0 °F - 35.6 °F 58% 30.15 in - SE 6.9 mph - N/A   Clear
2:00 AM 50.0 °F - 33.8 °F 54% 30.12 in - ESE 4.6 mph - N/A   Clear
3:00 AM 46.4 °F 45.2 °F 33.8 °F 62% 30.12 in - East 3.5 mph - N/A   Clear
4:00 AM 44.6 °F 42.2 °F 33.8 °F 66% 30.12 in - SE 4.6 mph - N/A   Clear
5:00 AM 44.6 °F 42.2 °F 33.8 °F 66% 30.12 in - ESE 4.6 mph - N/A   Clear
6:00 AM 42.8 °F 41.1 °F 33.8 °F 70% 30.12 in - SE 3.5 mph - N/A   Clear
6:30 AM 41.0 °F 39.0 °F 33.8 °F 76% 30.12 in - SE 3.5 mph - N/A   Clear
7:00 AM 41.0 °F 39.0 °F 33.8 °F 76% 30.12 in - SE 3.5 mph - N/A   Clear
7:30 AM 46.4 °F 45.2 °F 35.6 °F 66% 30.12 in - SE 3.5 mph - N/A   Clear
8:00 AM 48.2 °F - 35.6 °F 62% 30.12 in - Variable 2.3 mph - N/A   Clear
8:30 AM 51.8 °F - 37.4 °F 58% 30.12 in - ESE 3.5 mph - N/A   Clear
9:00 AM 55.4 °F - 37.4 °F 51% 30.12 in - Variable 2.3 mph - N/A   Clear
9:30 AM 53.6 °F - 37.4 °F 54% 30.15 in - Variable 2.3 mph - N/A   Clear
10:00 AM 55.4 °F - 39.2 °F 54% 30.15 in - Variable 2.3 mph - N/A   Clear
10:30 AM 55.4 °F - 39.2 °F 54% 30.15 in - Variable 1.2 mph - N/A   Clear
11:00 AM 57.2 °F - 39.2 °F 51% 30.15 in - Variable 2.3 mph - N/A   Clear
11:30 AM 62.6 °F - 39.2 °F 42% 30.15 in - Variable 4.6 mph - N/A   Clear
11:47 AM 60.8 °F - 41.0 °F 48% 30.15 in 6.2 mi SSW 5.8 mph - N/A Rain Light Rain
12:00 PM 60.8 °F - 41.0 °F 48% 30.15 in 6.2 mi South 4.6 mph - N/A Rain Light Rain
12:30 PM 57.2 °F - 42.8 °F 59% 30.15 in 6.2 mi Variable 4.6 mph - N/A   Partly Cloudy
1:00 PM 62.6 °F - 44.6 °F 52% 30.12 in 6.2 mi Variable 2.3 mph - N/A   Partly Cloudy
1:30 PM 62.6 °F - 44.6 °F 52% 30.12 in - SE 3.5 mph - N/A   Clear
2:00 PM 64.4 °F - 48.2 °F 56% 30.12 in - Variable 3.5 mph - N/A   Clear
2:30 PM 64.4 °F - 46.4 °F 52% 30.12 in - Variable 2.3 mph - N/A   Clear
3:00 PM 64.4 °F - 46.4 °F 52% 30.12 in - Variable 4.6 mph - N/A   Clear
3:30 PM 64.4 °F - 46.4 °F 52% 30.12 in - WSW 4.6 mph - N/A   Clear
4:00 PM 66.2 °F - 46.4 °F 49% 30.12 in - Variable 2.3 mph - N/A   Clear
4:30 PM 66.2 °F - 46.4 °F 49% 30.12 in 6.2 mi Variable 3.5 mph - N/A   Partly Cloudy
5:00 PM 64.4 °F - 46.4 °F 52% 30.09 in 6.2 mi SE 3.5 mph - N/A   Scattered Clouds
5:30 PM 64.4 °F - 46.4 °F 52% 30.09 in 6.2 mi Variable 1.2 mph - N/A   Scattered Clouds
6:00 PM 64.4 °F - 48.2 °F 56% 30.09 in 6.2 mi Variable 2.3 mph - N/A   Scattered Clouds
6:30 PM 64.4 °F - 48.2 °F 56% 30.09 in 6.2 mi South 4.6 mph - N/A   Scattered Clouds
7:00 PM 62.6 °F - 48.2 °F 59% 30.12 in 6.2 mi South 3.5 mph - N/A   Scattered Clouds
7:21 PM 60.8 °F - 48.2 °F 63% 30.12 in 6.2 mi South 3.5 mph - N/A Rain Light Rain Showers
7:30 PM 59.0 °F - 48.2 °F 67% 30.12 in 6.2 mi WSW 11.5 mph - N/A Rain Light Rain Showers
8:00 PM 55.4 °F - 50.0 °F 82% 30.12 in 6.2 mi SSW 3.5 mph - N/A Rain Light Rain Showers
8:30 PM 53.6 °F - 50.0 °F 88% 30.15 in 6.2 mi NNE 5.8 mph - N/A   Partly Cloudy
9:00 PM 53.6 °F - 51.8 °F 94% 30.15 in - NNE 3.5 mph - N/A   Clear
9:30 PM 51.8 °F - 50.0 °F 94% 30.15 in - Calm Calm - N/A   Clear
10:00 PM 50.0 °F - 50.0 °F 100% 30.15 in - Variable 2.3 mph - N/A   Clear
11:00 PM 50.0 °F - 50.0 °F 100% 30.15 in - ENE 3.5 mph - N/A   Clear